[[{"header":{"parameterUnit":"m.s-1","parameterCategory":1,"la1":30.2991,"la2":30.254,"lo1":-89.0895,"lo2":-89.0444,"dy":0.0017,"dx":0.0017,"nx":28,"ny":28,"refTime":"2024-03-29T09:00:00:Z","depth":0,"parameterNumber":2,"parameterNumberName":"U-component_of_WINDS"},"data":[0,0,0,0,0,0,0,0,0,0,0,0,0,0,0,0,0,0,0,0,0,0,0,0,0,0,0,0,0,0,0,0,0,0,0,0,0,0,0,0,0,0,0,0,0,0,0,0,0,0,0,0,0,0,0,0,0,0,-4.3278,-4.3278,0,-4.3291,-4.3291,-4.3291,-4.3199,-4.3196,-4.3194,-4.3191,-4.3205,-4.3208,-4.3211,0,0,0,0,0,0,0,0,0,0,0,0,0,-4.3179,-4.3181,-4.3278,-4.3278,-4.3279,-4.3291,-4.3291,-4.3291,-4.3199,-4.3196,-4.3193,-4.319,-4.3204,-4.3207,-4.3211,0,0,0,0,0,0,0,0,0,0,0,0,0,-4.321,-4.3182,-4.3278,-4.3234,-4.323,-4.3291,-4.3291,-4.3291,-4.32,-4.3196,-4.3192,-4.3189,-4.3203,-4.3207,-4.3211,-4.3314,0,0,-4.3224,-4.3226,0,0,0,0,0,0,0,0,-4.3208,-4.3214,-4.3241,-4.3237,-4.3233,-4.3239,-4.3261,-4.3299,-4.3201,-4.3212,-4.3191,-4.3187,-4.322,-4.3222,-4.3233,-4.3315,-4.3316,-4.3224,-4.3227,-4.3229,-4.323,0,0,0,0,0,0,0,-4.3206,-4.3213,-4.3283,-4.3241,-4.3237,-4.3215,-4.3215,-4.3268,-4.3237,-4.321,-4.3204,-4.3206,-4.3217,-4.3229,-4.3233,-4.3316,-4.3224,-4.3228,-4.323,-4.3232,-4.3486,-4.349,0,0,0,0,0,0,-4.321,-4.3211,-4.3283,-4.3283,-4.3211,-4.322,-4.322,-4.3241,-4.3236,-4.3232,-4.321,-4.3202,-4.3224,-4.3228,-4.3233,-4.3354,-4.3229,-4.3233,-4.3235,-4.3482,-4.3487,-4.3492,0,0,0,0,0,0,-4.3208,-4.3217,-4.3282,-4.3246,-4.3252,-4.3226,-4.325,-4.3244,-4.3255,-4.3236,-4.323,-4.3228,-4.3221,-4.3227,-4.3295,-4.3353,-4.3234,-4.3238,-4.3477,-4.3483,-4.3489,-4.3597,0,0,0,0,0,0,-4.3205,-4.3217,-4.3255,-4.3247,-4.3255,-4.3344,-4.3254,-4.3247,-4.3263,-4.3253,-4.3251,-4.3247,-4.3219,-4.329,-4.3299,-4.3357,-4.3241,-4.3471,-4.348,-4.3487,-4.3588,-4.3606,-4.3622,0,0,0,0,0,-4.3202,-4.3284,-4.3257,-4.3266,-4.3301,-4.3347,-4.3351,-4.3316,-4.3268,-4.3306,-4.3294,-4.3247,-4.3346,-4.3297,-4.3308,-4.3367,-4.3468,-4.3477,-4.3487,-4.3581,-4.3603,-4.3621,0,0,0,0,0,0,-4.3298,-4.3282,-4.3252,-4.3334,-4.3343,-4.3331,-4.3378,-4.3341,-4.3363,-4.3353,-4.331,-4.331,-4.3386,-4.3384,-4.333,-4.3468,-4.3398,-4.3411,-4.3466,-4.3487,-4.3504,-4.3502,-4.3245,0,0,0,0,0,-4.3329,-4.3367,-4.3351,-4.3425,-4.3431,-4.3405,-4.3423,-4.3396,-4.3403,-4.3407,-4.3399,-4.3409,-4.3442,-4.3465,-4.3494,-4.3589,-4.3587,-4.3635,-4.3652,-4.3666,-4.3676,-4.3727,-4.3749,-4.3523,-4.3523,-4.3523,0,0,-4.3393,-4.3389,-4.3415,-4.3445,-4.3448,-4.3489,-4.3408,-4.3454,-4.3485,-4.3414,-4.3477,-4.3474,-4.3482,-4.3564,-4.36,-4.3564,-4.3739,-4.3678,-4.3689,-4.3692,-4.3739,-4.3761,-4.378,-4.3529,-4.3528,-4.3527,0,0,-4.3529,-4.353,-4.3592,-4.3598,-4.3605,-4.3588,-4.3603,-4.3599,-4.3593,-4.3657,-4.3605,-4.3642,-4.37,-4.3708,-4.372,-4.3866,-4.3823,-4.3877,-4.3964,-4.4014,-4.4032,-4.4048,-4.41,-4.4119,-4.3887,-4.3888,-4.3888,0,-4.3607,-4.3666,-4.3629,-4.368,-4.3695,-4.3634,-4.3697,-4.3705,-4.3722,-4.3735,-4.3695,-4.3768,-4.3769,-4.3853,-4.3889,-4.3901,-4.3918,-4.3875,-4.4032,-4.4048,-4.4062,-4.4111,-4.413,-4.3894,-4.3893,-4.3893,-4.3892,0,-4.3762,-4.3805,-4.3854,-4.3872,-4.3894,-4.3951,-4.3923,-4.395,-4.3922,-4.391,-4.3977,-4.3977,-4.4006,-4.4025,-4.3998,-4.4106,-4.4084,-4.404,-4.3968,-4.409,-4.4135,-4.4154,-4.3903,-4.3901,-4.3899,-4.3897,0,0,-4.3955,-4.3955,-4.3974,-4.3982,-4.3988,-4.402,-4.4076,-4.4105,-4.4129,-4.4144,-4.419,-4.4243,-4.4202,-4.4216,-4.4191,-4.4235,-4.4351,-4.4185,-4.4185,-4.4216,-4.4472,-4.4504,-4.4526,-4.4325,-4.4328,-4.4331,-4.4471,0,-4.4089,-4.4182,-4.4152,-4.4247,-4.4287,-4.4232,-4.4281,-4.4291,-4.4282,-4.4315,-4.4305,-4.4343,-4.4287,-4.4295,-4.4337,-4.4328,-4.4402,-4.4318,-4.4368,-4.437,-4.4365,-4.455,-4.4584,-4.4716,-4.4488,-4.4491,-4.4494,0,-4.4255,-4.4277,-4.4376,-4.4378,-4.4393,-4.4437,-4.4463,-4.4495,-4.4507,-4.4497,-4.4515,-4.4481,-4.4538,-4.4469,-4.4547,-4.4491,-4.451,-4.4509,-4.4514,-4.4515,-4.4438,-4.4556,-4.4757,-4.4776,-4.4521,-4.4519,-4.4517,0,-4.4385,-4.4441,-4.4507,-4.4517,-4.452,-4.4553,-4.4556,-4.4563,-4.4583,-4.4607,-4.462,-4.465,-4.4666,-4.4691,-4.4667,-4.4619,-4.475,-4.4678,-4.4744,-4.4744,-4.4771,-4.4769,-4.4977,-4.4787,-4.4786,-4.4786,-4.4786,0,-4.4536,-4.4598,-4.4566,-4.4607,-4.4677,-4.4644,-4.4715,-4.4712,-4.472,-4.476,-4.4716,-4.4755,-4.4722,-4.4759,-4.4741,-4.4809,-4.4817,-4.4812,-4.4806,-4.4815,-4.4816,-4.4825,-4.4815,-4.4791,-4.479,-4.4789,-4.4788,0,-4.4691,-4.4673,-4.4742,-4.4741,-4.4742,-4.4794,-4.4793,-4.4832,-4.4821,-4.4874,-4.4884,-4.4868,-4.491,-4.4889,-4.4933,-4.4921,-4.5009,-4.4991,-4.5005,-4.5,-4.5066,-4.506,-4.5286,-4.5314,-4.5107,-4.5109,-4.5111,0,-4.4787,-4.4835,-4.4839,-4.4863,-4.487,-4.4909,-4.493,-4.4901,-4.4925,-4.4944,-4.4981,-4.5019,-4.5048,-4.5118,-4.511,-4.5144,-4.5127,-4.5204,-4.5131,-4.514,-4.5127,-4.5124,-4.5129,-4.5218,-4.522,-4.5222,-4.5224,0,-4.496,-4.4949,-4.4981,-4.5011,-4.5038,-4.506,-4.5078,-4.5101,-4.5073,-4.5103,-4.5145,-4.5168,-4.5214,-4.5252,-4.5283,-4.5287,-4.5252,-4.5247,-4.5264,-4.5272,-4.5278,-4.5276,-4.5043,-4.5241,-4.5239,-4.5238,-4.5237,-4.5236,-4.5088,-4.5128,-4.5139,-4.5176,-4.5188,-4.5207,-4.5244,-4.5239,-4.5274,-4.5308,-4.529,-4.534,-4.5354,-4.5391,-4.5401,-4.5441,-4.541,-4.5435,-4.5441,-4.5447,-4.5456,-4.5274,-4.5446,-4.5446,-4.5445,-4.5445,-4.5445,0,-4.5258,-4.5263,-4.5298,-4.5326,-4.5357,-4.5322,-4.5342,-4.537,-4.5414,-4.543,-4.546,-4.551,-4.5549,-4.5546,-4.5582,-4.5615,-4.56,-4.5625,-4.5622,-4.5624,-4.5481,-4.5462,-4.5637,-4.5637,-4.5637,-4.5637,-4.5637,-4.5637,-4.5349,-4.5416,-4.5407,-4.548,-4.5485,-4.5533,-4.5548,-4.5566,-4.5579,-4.5637,-4.5669,-4.5667,-4.5677,-4.5714,-4.5748,-4.5747,-4.5762,-4.5794,-4.5786,-4.5652,-4.5633,-4.5615,-4.5597,-4.5798,-4.5798,-4.5925,-4.5927,-4.5927]},{"header":{"parameterUnit":"m.s-1","parameterCategory":1,"la1":30.2991,"la2":30.254,"lo1":-89.0895,"lo2":-89.0444,"dy":0.0017,"dx":0.0017,"nx":28,"ny":28,"refTime":"2024-03-29T09:00:00:Z","depth":0,"parameterNumber":3,"parameterNumberName":"V-component_of_WINDS"},"data":[0,0,0,0,0,0,0,0,0,0,0,0,0,0,0,0,0,0,0,0,0,0,0,0,0,0,0,0,0,0,0,0,0,0,0,0,0,0,0,0,0,0,0,0,0,0,0,0,0,0,0,0,0,0,0,0,0,0,2.6951,2.6951,0,2.6948,2.6948,2.6948,2.6994,2.6995,2.6997,2.6998,2.6988,2.6987,2.6985,0,0,0,0,0,0,0,0,0,0,0,0,0,2.6994,2.6993,2.6951,2.6951,2.6951,2.6948,2.6948,2.6948,2.6994,2.6995,2.6997,2.6998,2.6988,2.6987,2.6985,0,0,0,0,0,0,0,0,0,0,0,0,0,2.6981,2.6992,2.6951,2.6974,2.6976,2.6948,2.6948,2.6948,2.6994,2.6996,2.6997,2.6999,2.6989,2.6987,2.6985,2.6933,0,0,2.6978,2.6977,0,0,0,0,0,0,0,0,2.6982,2.698,2.6971,2.6973,2.6975,2.6974,2.6959,2.6943,2.6993,2.6987,2.6998,2.7,2.6981,2.698,2.6975,2.6932,2.6932,2.6978,2.6977,2.6976,2.6975,0,0,0,0,0,0,0,2.6983,2.698,2.695,2.6971,2.6973,2.6983,2.6983,2.6956,2.6973,2.6987,2.6991,2.699,2.6983,2.6977,2.6975,2.6932,2.6978,2.6976,2.6975,2.6974,2.6848,2.6846,0,0,0,0,0,0,2.6981,2.698,2.695,2.695,2.6983,2.6981,2.6981,2.6972,2.6974,2.6976,2.6988,2.6992,2.6979,2.6977,2.6975,2.6914,2.6976,2.6974,2.6972,2.685,2.6847,2.6845,0,0,0,0,0,0,2.6982,2.6978,2.695,2.6966,2.6963,2.6978,2.6967,2.6971,2.6965,2.6974,2.6977,2.698,2.6981,2.6978,2.6944,2.6915,2.6973,2.6971,2.6852,2.6849,2.6846,2.6793,0,0,0,0,0,0,2.6983,2.6978,2.6959,2.6965,2.6962,2.692,2.6966,2.6969,2.6962,2.6967,2.6967,2.6969,2.6982,2.6947,2.6941,2.6913,2.6969,2.6855,2.6851,2.6847,2.6797,2.6788,2.6781,0,0,0,0,0,2.6984,2.6943,2.6958,2.6954,2.6939,2.6918,2.6916,2.6935,2.6959,2.694,2.6946,2.6969,2.6919,2.6943,2.6937,2.6907,2.6856,2.6852,2.6847,2.6801,2.679,2.6781,0,0,0,0,0,0,2.693,2.6944,2.6961,2.6921,2.6918,2.6926,2.6902,2.6923,2.6911,2.6916,2.6938,2.6937,2.69,2.69,2.6926,2.6858,2.6892,2.6886,2.6858,2.6848,2.684,2.684,2.6967,0,0,0,0,0,2.6914,2.6897,2.691,2.6873,2.6871,2.6887,2.6878,2.6893,2.6891,2.6889,2.6893,2.6888,2.6872,2.686,2.6846,2.6798,2.6799,2.6775,2.6767,2.676,2.6754,2.6729,2.6719,2.683,2.683,2.683,0,0,2.6879,2.6885,2.6872,2.6862,2.6862,2.6843,2.6885,2.6863,2.6849,2.6885,2.6854,2.6857,2.6853,2.6812,2.6794,2.6811,2.6724,2.6754,2.6749,2.6746,2.6724,2.6713,2.6704,2.6827,2.6827,2.6828,0,0,2.6806,2.6809,2.6779,2.6779,2.678,2.6791,2.6784,2.6789,2.6793,2.6763,2.679,2.6773,2.6744,2.6741,2.6735,2.6664,2.6683,2.6658,2.6614,2.659,2.6581,2.6574,2.6548,2.6538,2.6653,2.6652,2.6652,0,2.6762,2.6736,2.676,2.6737,2.6732,2.6767,2.6736,2.6734,2.6729,2.6723,2.6744,2.671,2.6709,2.6669,2.6652,2.6646,2.6638,2.6657,2.6581,2.6574,2.6567,2.6542,2.6532,2.6649,2.665,2.665,2.665,0,2.6682,2.6664,2.664,2.6637,2.6628,2.6601,2.662,2.6609,2.6625,2.6634,2.6602,2.6604,2.6591,2.6583,2.6597,2.6544,2.6555,2.6578,2.6612,2.6553,2.653,2.6521,2.6645,2.6646,2.6647,2.6648,0,0,2.6572,2.6585,2.6576,2.6575,2.658,2.6565,2.654,2.653,2.6519,2.6515,2.6493,2.647,2.6492,2.6485,2.65,2.6479,2.6422,2.6505,2.6505,2.6488,2.6364,2.6346,2.6334,2.6437,2.6435,2.6434,2.6364,0,2.6501,2.646,2.6482,2.6437,2.6421,2.6455,2.6433,2.6433,2.6441,2.6427,2.6435,2.6418,2.6449,2.6445,2.6426,2.6433,2.6397,2.6439,2.6415,2.6414,2.6414,2.6323,2.6303,2.6237,2.6355,2.6354,2.6353,0,2.6412,2.6407,2.6361,2.637,2.6364,2.6344,2.6337,2.6324,2.6324,2.6331,2.6326,2.6346,2.6321,2.6357,2.6322,2.635,2.6342,2.6344,2.6342,2.6339,2.6378,2.6316,2.6216,2.6206,2.6339,2.634,2.6341,0,2.6335,2.6317,2.6288,2.6286,2.6296,2.6281,2.6284,2.6287,2.628,2.6273,2.6269,2.6259,2.6252,2.6244,2.626,2.6285,2.6223,2.626,2.6227,2.6227,2.6211,2.6211,2.6107,2.6208,2.6208,2.6208,2.6208,0,2.6253,2.6223,2.6254,2.6235,2.6204,2.6229,2.6196,2.6203,2.6206,2.6188,2.6217,2.62,2.6224,2.6209,2.6222,2.6191,2.6188,2.6192,2.6196,2.6189,2.6188,2.6183,2.6187,2.6205,2.6206,2.6207,2.6207,0,2.6161,2.618,2.6151,2.6164,2.6167,2.6142,2.6153,2.6136,2.6147,2.6125,2.6121,2.6139,2.6123,2.6139,2.6124,2.6133,2.6091,2.6102,2.6091,2.6094,2.6059,2.6062,2.5947,2.5933,2.6043,2.6042,2.6041,0,2.6106,2.6085,2.6096,2.6088,2.609,2.6076,2.607,2.6095,2.6087,2.6087,2.607,2.6057,2.6048,2.6021,2.6031,2.6019,2.6029,2.599,2.6027,2.6021,2.6027,2.6028,2.6026,2.5981,2.598,2.5979,2.5978,0,2.6007,2.6018,2.6009,2.6003,2.5996,2.5992,2.599,2.5981,2.6007,2.5996,2.5982,2.5975,2.5961,2.5947,2.594,2.5941,2.5963,2.5967,2.5958,2.595,2.5945,2.5946,2.6069,2.5968,2.5969,2.597,2.597,2.5971,2.5931,2.5914,2.592,2.5909,2.5911,2.591,2.5895,2.5906,2.5895,2.5887,2.5902,2.5883,2.5885,2.5877,2.5877,2.5862,2.5878,2.5866,2.5863,2.5859,2.5854,2.5949,2.5861,2.5861,2.5861,2.5861,2.5862,0,2.5833,2.5839,2.5829,2.5827,2.5818,2.5843,2.5843,2.5834,2.5818,2.5819,2.581,2.5794,2.5781,2.5792,2.5781,2.5767,2.5777,2.5764,2.5764,2.5764,2.584,2.5848,2.5756,2.5756,2.5756,2.5756,2.5756,2.5756,2.578,2.5753,2.5765,2.5739,2.5746,2.573,2.5727,2.5726,2.5727,2.5708,2.5699,2.5707,2.5711,2.5702,2.5692,2.5695,2.5689,2.5672,2.5678,2.5748,2.5759,2.5769,2.5776,2.5671,2.567,2.5604,2.5603,2.5603]}]]